Weather History for Belize, Belize

Change the Weather History Date:

Wednesday, October 24, 2012

  Actual Average Record
Temperature  
Mean Temperature 80 °F -  
Max Temperature 86 °F 85 °F 89 °F (1998)
Min Temperature 74 °F 71 °F 66 °F (2011)
Cooling Degree Days 15    
Growing Degree Days 30 (Base 50)    
Moisture  
Dew Point 74 °F    
Average Humidity 80    
Maximum Humidity 98    
Minimum Humidity 60    
Precipitation  
Precipitation 0.04 in 0.26 in - ()
Sea Level Pressure  
Sea Level Pressure 29.81 in    
Wind  
Wind Speed 6 mph ()    
Max Wind Speed 13 mph    
Max Gust Speed -    
Visibility 8.3 miles    
Events Rain    
Averages and records for this station are not official NWS values.
T = Trace of Precipitation, MM = Missing Value Source: Averaged Metar Reports

Daily Weather History Graph

Daily Weather History Graph

Search for Another Location

Airport:

Trip Planner

Search our weather history database for the weather conditions in past years. The results will help you decide how hot, cold, wet, or windy it might be!

Date:

Astronomy

Oct. 24, 2012 Rise Set
Actual Time 5:49 AM CST 5:25 PM CST
Civil Twilight 5:27 AM CST 5:47 PM CST
Nautical Twilight 5:01 AM CST 6:12 PM CST
Astronomical Twilight 4:36 AM CST 6:38 PM CST
Moon 2:05 PM CST (10/24) 1:25 AM CST (10/24)
Length of Visible Light 12h 20m
Length of Day
11h 36m
Waxing Gibbous, 76% of the Moon is Illuminated
Oct 24
Waxing Gibbous
Oct 29
Full
Nov 6
Last Quarter
Nov 13
New
Nov 20
First Quarter

Hourly Weather History & Observations

Time (CST) Temp. Heat Index Dew Point Humidity Pressure Visibility Wind Dir Wind Speed Gust Speed Precip Events Conditions
12:00 AM 74 °F - 73 °F 97% 29.83 in 11 mi NW 4.6 mph - - Rain Light Rain Showers
3:00 AM 75 °F - 74 °F 95% 29.79 in 12 mi NW 6.9 mph - -   Mostly Cloudy
5:00 AM 75.2 °F - 73.4 °F 94% 29.83 in 6.2 mi NW 6.9 mph - N/A   Scattered Clouds
6:00 AM 74 °F - 74 °F 98% 29.84 in 4 mi NNW 5.8 mph - -   Partly Cloudy
6:00 AM 75.2 °F - 73.4 °F 94% 29.83 in 4.3 mi NNW 5.8 mph - N/A   Mostly Cloudy
7:00 AM 75.2 °F - 73.4 °F 94% 29.86 in 4.3 mi NW 5.8 mph - N/A   Mostly Cloudy
8:00 AM 77.0 °F - 75.2 °F 94% 29.86 in 6.2 mi WNW 5.8 mph - N/A   Mostly Cloudy
9:00 AM 79 °F - 76 °F 87% 29.89 in 12 mi NW 6.9 mph - -   Partly Cloudy
9:00 AM 78.8 °F - 75.2 °F 89% 29.88 in 6.2 mi NW 6.9 mph - N/A   Scattered Clouds
10:00 AM 82.4 °F 89.5 °F 75.2 °F 79% 29.86 in 6.2 mi NW 8.1 mph - N/A   Scattered Clouds
11:00 AM 84.2 °F 94.1 °F 77.0 °F 79% 29.83 in 6.2 mi WNW 6.9 mph - N/A   Scattered Clouds
12:00 PM 86 °F - 76 °F 65% 29.81 in 12 mi NNW 5.8 mph - - Rain Light Rain Showers
12:00 PM 86.0 °F 95.1 °F 75.2 °F 70% 29.81 in 6.2 mi NNW 5.8 mph - N/A   Scattered Clouds
1:00 PM 86.0 °F 95.1 °F 75.2 °F 70% 29.77 in 6.2 mi NNW 6.9 mph - N/A   Scattered Clouds
2:00 PM 86.0 °F 96.9 °F 77.0 °F 74% 29.76 in 6.2 mi NE 6.9 mph - N/A   Scattered Clouds
3:00 PM 84 °F - 72 °F 60% 29.75 in 16 mi NNE 11.5 mph - -   Partly Cloudy
3:00 PM 84.2 °F 89.6 °F 71.6 °F 66% 29.75 in 6.2 mi NNE 11.5 mph - N/A   Partly Cloudy
4:00 PM 86.0 °F 93.4 °F 73.4 °F 66% 29.75 in 6.2 mi NNE 12.7 mph - N/A   Partly Cloudy
5:00 PM 84.2 °F 90.9 °F 73.4 °F 70% 29.76 in 6.2 mi NE 9.2 mph - N/A   Partly Cloudy
6:00 PM 83 °F - 73 °F 66% 29.79 in 16 mi NE 5.8 mph - -   Partly Cloudy
6:00 PM 82.4 °F 88.2 °F 73.4 °F 74% 29.78 in 6.2 mi NE 5.8 mph - N/A   Partly Cloudy
9:00 PM 82 °F - 75 °F 73% 29.84 in 16 mi NNE 4.6 mph - -   Scattered Clouds